TimeCST,TemperatureF,Dew PointF,Humidity,Sea Level PressureIn,VisibilityMPH,Wind Direction,Wind SpeedMPH,Gust SpeedMPH,PrecipitationIn,Events,Conditions,WindDirDegrees,DateUTC
12:52 AM,57.9,52.0,81,30.08,10.0,South,11.5,-,N/A,,Overcast,180,2013-01-29 06:52:00
1:52 AM,57.9,52.0,81,30.06,10.0,South,8.1,-,N/A,,Clear,170,2013-01-29 07:52:00
2:52 AM,57.0,52.0,83,30.05,10.0,SSE,8.1,-,N/A,,Clear,160,2013-01-29 08:52:00
3:52 AM,55.9,52.0,87,30.03,10.0,South,6.9,-,N/A,,Clear,170,2013-01-29 09:52:00
4:38 AM,57.2,53.6,88,30.01,10.0,South,9.2,-,N/A,,Mostly Cloudy,170,2013-01-29 10:38:00
4:52 AM,59.0,54.0,83,30.01,10.0,South,12.7,20.7,N/A,,Overcast,190,2013-01-29 10:52:00
5:52 AM,60.1,55.9,86,30.02,9.0,SSW,12.7,20.7,N/A,,Overcast,200,2013-01-29 11:52:00
6:52 AM,60.1,55.9,86,30.02,9.0,South,10.4,-,N/A,,Overcast,190,2013-01-29 12:52:00
7:00 AM,60.8,55.4,82,30.03,9.0,South,12.7,-,N/A,,Overcast,190,2013-01-29 13:00:00
7:52 AM,62.1,55.9,80,30.02,10.0,South,10.4,19.6,N/A,,Overcast,190,2013-01-29 13:52:00
8:52 AM,62.1,55.9,80,30.01,10.0,South,18.4,25.3,N/A,,Overcast,190,2013-01-29 14:52:00
9:52 AM,62.1,57.0,84,30.00,10.0,SSW,13.8,-,N/A,,Overcast,200,2013-01-29 15:52:00
10:11 AM,62.6,57.2,82,29.99,10.0,South,16.1,20.7,N/A,,Overcast,190,2013-01-29 16:11:00
10:52 AM,62.1,57.0,84,29.97,10.0,South,13.8,-,N/A,,Overcast,180,2013-01-29 16:52:00
11:29 AM,62.6,57.2,82,29.95,10.0,South,11.5,20.7,N/A,,Overcast,180,2013-01-29 17:29:00
11:52 AM,64.0,57.9,80,29.93,10.0,South,13.8,19.6,N/A,,Overcast,190,2013-01-29 17:52:00
12:52 PM,64.9,57.9,78,29.88,10.0,South,15.0,21.9,N/A,,Overcast,190,2013-01-29 18:52:00
1:52 PM,66.9,57.9,73,29.84,10.0,South,15.0,23.0,N/A,,Overcast,190,2013-01-29 19:52:00
2:52 PM,68.0,57.9,70,29.81,10.0,South,17.3,24.2,N/A,,Overcast,190,2013-01-29 20:52:00
3:52 PM,69.1,59.0,70,29.78,10.0,South,11.5,-,N/A,,Overcast,170,2013-01-29 21:52:00
4:52 PM,68.0,59.0,73,29.77,10.0,South,10.4,-,N/A,,Mostly Cloudy,170,2013-01-29 22:52:00
5:52 PM,68.0,59.0,73,29.74,10.0,SSE,16.1,20.7,N/A,,Partly Cloudy,160,2013-01-29 23:52:00
6:52 PM,68.0,59.0,73,29.73,10.0,South,12.7,21.9,N/A,,Clear,170,2013-01-30 00:52:00
7:52 PM,66.9,60.1,79,29.71,10.0,South,13.8,21.9,N/A,,Clear,170,2013-01-30 01:52:00
8:52 PM,66.9,60.1,79,29.66,10.0,South,16.1,26.5,N/A,,Mostly Cloudy,170,2013-01-30 02:52:00
9:15 PM,68.0,60.8,78,29.65,10.0,South,18.4,28.8,N/A,,Mostly Cloudy,170,2013-01-30 03:15:00
9:52 PM,68.0,61.0,78,29.61,10.0,South,19.6,31.1,N/A,,Overcast,170,2013-01-30 03:52:00
10:44 PM,69.8,60.8,73,29.57,10.0,South,18.4,34.5,N/A,,Scattered Clouds,170,2013-01-30 04:44:00
10:52 PM,69.1,61.0,75,29.55,10.0,South,20.7,35.7,N/A,,Partly Cloudy,180,2013-01-30 04:52:00
11:38 PM,69.8,60.8,73,29.54,10.0,South,25.3,34.5,N/A,,Overcast,180,2013-01-30 05:38:00
11:52 PM,71.1,61.0,70,29.53,10.0,South,23.0,32.2,N/A,,Overcast,180,2013-01-30 05:52:00